Lanseria, South Africa

12:11 PM SAST on June 28, 2017 (GMT +0200)
Lanseria

Weather History for FALA - August, 2013

Change the Weather History Date:

Thursday, August 22, 2013

  Actual Average Record
Temperature  
Mean Temperature 58 °F -  
Max Temperature 71 °F - - ()
Min Temperature 44 °F - - ()
Degree Days  
Heating Degree Days 8    
Growing Degree Days 8 (Base 50)    
Moisture  
Dew Point 18 °F    
Average Humidity 24    
Maximum Humidity 50    
Minimum Humidity 9    
Precipitation  
Precipitation 0.00 in - - ()
Sea Level Pressure  
Sea Level Pressure 30.18 in    
Wind  
Wind Speed 7 mph ()    
Max Wind Speed 17 mph    
Max Gust Speed 17 mph    
T = Trace of Precipitation, MM = Missing Value Source: Averaged Metar Reports

Daily Weather History Graph

Daily Weather History Graph

Search for Another Location

Airport or City:

Trip Planner

Search our weather history database for the weather conditions in past years. The results will help you decide how hot, cold, wet, or windy it might be!

Date:

Astronomy

Aug. 22, 2013 Rise Set
Actual Time 6:30 AM SAST 5:52 PM SAST
Civil Twilight 6:07 AM SAST 6:15 PM SAST
Nautical Twilight 5:40 AM SAST 6:42 PM SAST
Astronomical Twilight 5:13 AM SAST 7:09 PM SAST
Moon 7:28 PM SAST (8/22) 7:05 AM SAST (8/22)
Length of Visible Light 12h 08m
Length of Day
11h 21m
Full, 98% of the Moon is Illuminated
Aug 22
Full
Aug 28
Last Quarter
Sep 5
New
Sep 12
First Quarter
Sep 19
Full

Hourly Weather History & Observations

Time (SAST) Temp. Windchill Dew Point Humidity Pressure Visibility Wind Dir Wind Speed Gust Speed Precip Events Conditions
1:00 AM 53.6 °F - 26.6 °F 35% 30.09 in - WSW 5.8 mph - N/A   Clear
2:00 AM 51.8 °F - 19.4 °F 28% 30.09 in - WSW 9.2 mph - N/A   Clear
3:00 AM 48.2 °F - 15.8 °F 27% 30.09 in - SSW 17.3 mph - N/A   Clear
4:00 AM 44.6 °F 40.2 °F 15.8 °F 31% 30.09 in - South 8.1 mph - N/A   Clear
6:00 AM 46.4 °F 43.5 °F 26.6 °F 46% 30.15 in - SSE 5.8 mph - N/A   Clear
7:00 AM 46.4 °F 42.4 °F 28.4 °F 50% 30.18 in - South 8.1 mph - N/A   Clear
8:00 AM 50.0 °F - 24.8 °F 37% 30.21 in - SSE 10.4 mph - N/A   Clear
9:00 AM 51.8 °F - 24.8 °F 35% 30.21 in - SSE 11.5 mph - N/A   Clear
9:39 AM 55.4 °F - 24.8 °F 31% 30.24 in - SSE 6.9 mph - N/A   Clear
10:00 AM 55.4 °F - 23.0 °F 29% 30.24 in - SSE 5.8 mph - N/A   Clear
11:00 AM 59.0 °F - 23.0 °F 25% 30.24 in - Variable 4.6 mph - N/A   Clear
12:00 PM 64.4 °F - 19.4 °F 18% 30.21 in - Variable 3.5 mph - N/A   Clear
1:00 PM 66.2 °F - 15.8 °F 14% 30.18 in - WNW 8.1 mph - N/A   Clear
2:00 PM 68.0 °F - 14.0 °F 12% 30.15 in - Variable 5.8 mph 17.3 mph N/A   Clear
3:00 PM 69.8 °F - 14.0 °F 12% 30.15 in - Variable 4.6 mph - N/A   Clear
4:00 PM 71.6 °F - 10.4 °F 9% 30.15 in - Variable 6.9 mph - N/A   Clear
5:00 PM 69.8 °F - 10.4 °F 10% 30.15 in - West 5.8 mph - N/A   Clear
6:00 PM 64.4 °F - 14.0 °F 14% 30.18 in - West 5.8 mph - N/A   Clear
7:00 PM 60.8 °F - 8.6 °F 13% 30.18 in - SSW 5.8 mph - N/A   Clear
8:00 PM 57.2 °F - 10.4 °F 16% 30.21 in - South 5.8 mph - N/A   Clear
9:00 PM 55.4 °F - 10.4 °F 17% 30.24 in - SSE 5.8 mph - N/A   Clear
10:00 PM 53.6 °F - 10.4 °F 18% 30.27 in - SE 4.6 mph - N/A   Clear